CW1839 Catania IT current weather conditions

sailwx.info

Wind from 210 at 5 knots

Air temperature 19.4° C
Dewpoint 8.4° C

Last reported at 2020-Sep-26 03:30 UTC.
Time now 2020-Sep-26 06:23 UTC

Location: N 37°30' E 015°06'.
View on Google Maps.

See reports from other nearby stations

  
Tides and Currents Weather Stations Pressure Air Temp Water Temp Dewpoint Dewpoint Depression Visibility Wind Speed Wind Dir Waves Ship Positions
date/time (UTC)wind fromknots sea level pressurealtimeterstation pressurevisibilityair tempwater tempwave heightnotes
2020-Sep-26 03:30 210 5 19.4
2020-Sep-26 03:00 209 6 19.4
2020-Sep-25 20:45 244 5 25.6
2020-Sep-25 20:15 208 7 25.6
2020-Sep-25 20:00 267 7 25.6
2020-Sep-25 18:45 241 1 26.1
2020-Sep-25 17:15 260 3 27.8
2020-Sep-25 17:00 263 2 28.3
2020-Sep-25 16:30 246 2 28.9
2020-Sep-25 16:15 248 3 29.4
2020-Sep-25 12:15 134 30.6
2020-Sep-25 12:00 151 0 31.1
2020-Sep-25 04:00 275 1 22.2
2020-Sep-25 00:30 289 22.2
2020-Sep-24 21:30 271 22.8
2020-Sep-24 18:30 049 22.8
2020-Sep-24 17:45 049 23.3
2020-Sep-24 17:30 049 23.3
2020-Sep-24 13:45 086 1 27.2
2020-Sep-24 13:30 110 0 27.8
2020-Sep-24 09:15 154 26.1
2020-Sep-24 08:30 123 25.6
2020-Sep-24 08:15 092 25.0
2020-Sep-24 08:00 160 24.4
2020-Sep-24 07:46 162 23.9
2020-Sep-24 07:30 161 23.3
2020-Sep-24 07:15 349 23.3
2020-Sep-24 07:01 349 22.8
2020-Sep-24 06:45 349 22.2
2020-Sep-24 06:30 349 22.2
2020-Sep-24 06:15 349 21.7
2020-Sep-24 06:00 349 21.1